Location: Brookview Estates
(36.0476°N, 86.6931°W)
Time: 12:13:00
(UTC+00:00)

Cosmos 2333 Rocket - Pass Details

Date: 30 March 2020
Orbit: 841 x 860 km, 70.8° (Epoch: 27 May)

Event Time Altitude Azimuth Distance (km) Brightness Sun altitude
Rises 10:27:43 0° 321° (NW) 3,400 5.1 -14.2°
Reaches altitude 10° 10:30:43 10° 306° (NW) 2,463 4.3 -13.6°
Maximum altitude 10:34:47 21° 259° (W) 1,822 3.3 -12.8°
Drops below altitude 10° 10:38:51 10° 213° (SSW) 2,458 4.2 -12.0°
Sets 10:41:52 0° 197° (SSW) 3,392 5.0 -11.5°
